When you browse on this site, cookies collect data to enhance your experience and personalize the content and advertising you see.
Visit our Privacy Policy to learn more. By continuing to use the site, you agree to this use of cookies and data.
  • In Hungary
  • List of Countries
  • For 7 days
  • Water Temperature
  • Satellite Maps
  • Weather Map
  • News
  • Weather Widgets
  • user-avatar
    Login

    Hourly Weather Taba

    Today, 21 January, Monday

    Time Temperature Precipitation Wind Pressure Humidity
    00:00 +14°C° 0 mm 1 mps 694 mmHg 19%
    01:00 +13°C° 0 mm 1 mps 694 mmHg 18%
    02:00 +14°C° 0 mm 1 mps 693 mmHg 16%
    03:00 +13°C° 0 mm 1 mps 693 mmHg 20%
    04:00 +13°C° 0 mm 1 mps 693 mmHg 23%
    05:00 +13°C° 0 mm 1 mps 693 mmHg 27%
    06:00 +14°C° 0 mm 1 mps 693 mmHg 29%
    07:00 +14°C° 0 mm 1 mps 694 mmHg 31%
    08:00 +16°C° 0 mm 1 mps 694 mmHg 29%
    09:00 +18°C° 0 mm 1 mps 694 mmHg 29%
    10:00 +19°C° 0 mm 1 mps 694 mmHg 28%
    11:00 +20°C° 0 mm 1 mps 694 mmHg 28%
    12:00 +21°C° 0 mm 1 mps 694 mmHg 27%
    13:00 +22°C° 0 mm 1 mps 694 mmHg 26%
    14:00 +22°C° 0 mm 1 mps 694 mmHg 27%
    15:00 +21°C° 0 mm 1 mps 694 mmHg 29%
    16:00 +20°C° 0 mm 1 mps 693 mmHg 30%
    17:00 +20°C° 0 mm 1 mps 693 mmHg 32%
    18:00 +18°C° 0 mm 1 mps 693 mmHg 35%
    19:00 +16°C° 0 mm 1 mps 693 mmHg 37%
    20:00 +15°C° 0 mm 1 mps 693 mmHg 40%
    21:00 +14°C° 0 mm 1 mps 693 mmHg 41%
    22:00 +13°C° 0 mm 0 mps 693 mmHg 43%
    23:00 +12°C° 0 mm 0 mps 693 mmHg 45%

    Tomorrow, 22 January, Tuesday

    Time Temperature Precipitation Wind Pressure Humidity
    00:00 +12°C° 0 mm 0 mps 692 mmHg 45%
    01:00 +12°C° 0 mm 1 mps 692 mmHg 46%
    02:00 +12°C° 0 mm 1 mps 692 mmHg 47%
    03:00 +11°C° 0 mm 1 mps 692 mmHg 47%
    04:00 +11°C° 0 mm 1 mps 692 mmHg 47%
    05:00 +11°C° 0 mm 1 mps 692 mmHg 47%
    06:00 +11°C° 0 mm 1 mps 692 mmHg 43%
    07:00 +12°C° 0 mm 1 mps 692 mmHg 39%
    08:00 +12°C° 0 mm 0 mps 693 mmHg 35%
    09:00 +15°C° 0 mm 1 mps 693 mmHg 30%
    10:00 +18°C° 0 mm 1 mps 693 mmHg 25%
    11:00 +20°C° 0 mm 1 mps 694 mmHg 20%
    12:00 +20°C° 0 mm 1 mps 694 mmHg 18%
    13:00 +21°C° 0 mm 1 mps 693 mmHg 16%
    14:00 +20°C° 0 mm 2 mps 693 mmHg 14%
    15:00 +19°C° 0 mm 2 mps 693 mmHg 16%
    16:00 +18°C° 0 mm 2 mps 693 mmHg 17%
    17:00 +17°C° 0 mm 2 mps 693 mmHg 19%
    18:00 +16°C° 0 mm 2 mps 693 mmHg 22%
    19:00 +15°C° 0 mm 2 mps 693 mmHg 25%
    20:00 +14°C° 0 mm 2 mps 693 mmHg 28%
    21:00 +13°C° 0 mm 2 mps 693 mmHg 31%
    22:00 +12°C° 0 mm 2 mps 693 mmHg 34%
    23:00 +12°C° 0 mm 2 mps 693 mmHg 37%

    Day after tomorrow, 23 January, Wednesday

    Time Temperature Precipitation Wind Pressure Humidity
    00:00 +10°C° 0 mm 2 mps 692 mmHg 39%
    01:00 +10°C° 0 mm 2 mps 692 mmHg 41%
    02:00 +10°C° 0 mm 1 mps 692 mmHg 43%
    03:00 +10°C° 0 mm 1 mps 692 mmHg 45%
    04:00 +9°C° 0 mm 1 mps 691 mmHg 47%
    05:00 +9°C° 0 mm 1 mps 691 mmHg 49%
    06:00 +10°C° 0 mm 1 mps 691 mmHg 47%
    07:00 +11°C° 0 mm 1 mps 692 mmHg 45%
    08:00 +12°C° 0 mm 1 mps 692 mmHg 42%
    09:00 +13°C° 0 mm 1 mps 692 mmHg 36%
    10:00 +15°C° 0 mm 1 mps 693 mmHg 29%
    11:00 +17°C° 0 mm 2 mps 693 mmHg 23%
    12:00 +18°C° 0 mm 2 mps 692 mmHg 21%
    13:00 +19°C° 0 mm 3 mps 692 mmHg 18%
    14:00 +20°C° 0 mm 3 mps 691 mmHg 16%
    15:00 +19°C° 0 mm 3 mps 691 mmHg 18%
    16:00 +18°C° 0 mm 3 mps 691 mmHg 19%
    17:00 +17°C° 0 mm 3 mps 690 mmHg 20%
    18:00 +16°C° 0 mm 3 mps 691 mmHg 24%
    19:00 +15°C° 0 mm 2 mps 691 mmHg 28%
    20:00 +14°C° 0 mm 2 mps 691 mmHg 31%
    21:00 +14°C° 0 mm 2 mps 691 mmHg 35%
    22:00 +13°C° 0 mm 2 mps 691 mmHg 39%
    23:00 +13°C° 0 mm 2 mps 691 mmHg 43%

    24 January, Thursday

    Time Temperature Precipitation Wind Pressure Humidity
    00:00 +13°C° 0 mm 2 mps 690 mmHg 45%
    01:00 +12°C° 0 mm 2 mps 690 mmHg 47%
    02:00 +12°C° 0 mm 2 mps 690 mmHg 49%
    03:00 +12°C° 0 mm 2 mps 690 mmHg 50%
    04:00 +11°C° 0 mm 3 mps 689 mmHg 51%
    05:00 +11°C° 0 mm 3 mps 689 mmHg 51%
    06:00 +11°C° 0 mm 3 mps 689 mmHg 49%
    07:00 +12°C° 0 mm 3 mps 689 mmHg 47%
    08:00 +13°C° 0 mm 3 mps 690 mmHg 45%
    09:00 +15°C° 0 mm 4 mps 690 mmHg 38%
    10:00 +17°C° 0 mm 6 mps 690 mmHg 31%
    11:00 +20°C° 0 mm 8 mps 690 mmHg 24%
    12:00 +21°C° 0 mm 8 mps 690 mmHg 23%
    13:00 +22°C° 0 mm 8 mps 690 mmHg 21%
    14:00 +22°C° 0 mm 8 mps 690 mmHg 20%
    15:00 +21°C° 0 mm 7 mps 690 mmHg 22%
    16:00 +20°C° 0 mm 5 mps 690 mmHg 25%
    17:00 +19°C° 0 mm 4 mps 690 mmHg 27%
    18:00 +18°C° 0 mm 3 mps 690 mmHg 33%
    19:00 +17°C° 0 mm 2 mps 691 mmHg 40%
    20:00 +15°C° 0 mm 1 mps 691 mmHg 46%
    21:00 +15°C° 0 mm 1 mps 691 mmHg 48%
    22:00 +14°C° 0 mm 1 mps 691 mmHg 50%
    23:00 +13°C° 0 mm 1 mps 691 mmHg 52%

    25 January, Friday

    Time Temperature Precipitation Wind Pressure Humidity
    00:00 +13°C° 0 mm 1 mps 691 mmHg 48%
    01:00 +13°C° 0 mm 1 mps 691 mmHg 45%
    02:00 +13°C° 0 mm 1 mps 691 mmHg 41%
    03:00 +13°C° 0 mm 2 mps 691 mmHg 40%
    04:00 +12°C° 0 mm 2 mps 691 mmHg 38%
    05:00 +12°C° 0 mm 2 mps 691 mmHg 36%
    06:00 +13°C° 0 mm 2 mps 691 mmHg 34%
    07:00 +13°C° 0 mm 1 mps 692 mmHg 32%
    08:00 +14°C° 0 mm 1 mps 692 mmHg 29%
    09:00 +16°C° 0 mm 1 mps 692 mmHg 34%
    10:00 +17°C° 0 mm 2 mps 693 mmHg 40%
    11:00 +19°C° 0 mm 2 mps 693 mmHg 45%
    12:00 +20°C° 0 mm 3 mps 692 mmHg 42%
    13:00 +22°C° 0 mm 4 mps 692 mmHg 39%
    14:00 +23°C° 0 mm 5 mps 692 mmHg 37%
    15:00 +22°C° 0 mm 4 mps 692 mmHg 39%
    16:00 +21°C° 0 mm 3 mps 691 mmHg 41%
    17:00 +20°C° 0 mm 2 mps 691 mmHg 44%
    18:00 +19°C° 0 mm 2 mps 692 mmHg 51%
    19:00 +19°C° 0 mm 1 mps 692 mmHg 58%
    20:00 +18°C° 0 mm 1 mps 692 mmHg 65%
    21:00 +18°C° 0 mm 1 mps 692 mmHg 71%
    22:00 +18°C° 0 mm 1 mps 692 mmHg 77%
    23:00 +16°C° 0 mm 1 mps 691 mmHg 83%

    26 January, Saturday

    Time Temperature Precipitation Wind Pressure Humidity
    00:00 +16°C° 0 mm 1 mps 691 mmHg 86%
    01:00 +16°C° 0 mm 1 mps 691 mmHg 89%
    02:00 +16°C° 0 mm 1 mps 691 mmHg 91%
    03:00 +15°C° 0 mm 1 mps 691 mmHg 92%
    04:00 +15°C° 0 mm 1 mps 690 mmHg 92%
    05:00 +15°C° 0 mm 1 mps 690 mmHg 93%
    06:00 +15°C° 0.1 mm 1 mps 690 mmHg 91%
    07:00 +16°C° 0.1 mm 1 mps 691 mmHg 88%
    08:00 +16°C° 0.1 mm 1 mps 691 mmHg 86%
    09:00 +19°C° 0.1 mm 1 mps 691 mmHg 80%
    10:00 +20°C° 0.1 mm 1 mps 691 mmHg 74%
    11:00 +20°C° 0.1 mm 2 mps 691 mmHg 69%
    12:00 +21°C° 0.5 mm 2 mps 691 mmHg 63%
    13:00 +21°C° 0.5 mm 3 mps 691 mmHg 57%
    14:00 +22°C° 0.5 mm 3 mps 690 mmHg 50%
    15:00 +21°C° 0.9 mm 3 mps 690 mmHg 51%
    16:00 +21°C° 0.9 mm 2 mps 690 mmHg 52%
    17:00 +20°C° 0.9 mm 2 mps 690 mmHg 53%
    18:00 +20°C° 0.3 mm 1 mps 690 mmHg 51%
    19:00 +20°C° 0.3 mm 1 mps 690 mmHg 50%
    20:00 +19°C° 0.3 mm 1 mps 690 mmHg 48%
    21:00 +18°C° 0.2 mm 1 mps 690 mmHg 46%
    22:00 +18°C° 0.2 mm 1 mps 690 mmHg 43%
    23:00 +16°C° 0.2 mm 1 mps 690 mmHg 41%
    Show more